TimeMST,TemperatureF,Dew PointF,Humidity,Sea Level PressureIn,VisibilityMPH,Wind Direction,Wind SpeedMPH,Gust SpeedMPH,PrecipitationIn,Events,Conditions,WindDirDegrees,DateUTC
12:53 AM,41.0,8.1,26,29.97,10.0,SW,20.7,-,N/A,,Clear,230,2013-01-24 07:53:00
1:53 AM,39.9,9.0,28,29.97,10.0,SW,20.7,-,N/A,,Clear,220,2013-01-24 08:53:00
2:53 AM,39.9,9.0,28,29.97,10.0,SW,21.9,-,N/A,,Clear,220,2013-01-24 09:53:00
3:53 AM,39.0,9.0,29,29.99,10.0,WSW,8.1,-,N/A,,Clear,240,2013-01-24 10:53:00
4:53 AM,39.0,9.0,29,29.99,10.0,SW,11.5,-,N/A,,Clear,220,2013-01-24 11:53:00
5:53 AM,39.0,10.0,30,29.99,10.0,SW,16.1,25.3,N/A,,Mostly Cloudy,230,2013-01-24 12:53:00
6:53 AM,39.9,10.9,31,29.98,10.0,SW,21.9,31.1,N/A,,Partly Cloudy,220,2013-01-24 13:53:00
7:53 AM,39.0,12.0,33,29.97,10.0,SW,26.5,35.7,N/A,,Clear,220,2013-01-24 14:53:00
8:53 AM,43.0,14.0,31,29.96,10.0,SW,24.2,35.7,N/A,,Clear,220,2013-01-24 15:53:00
9:53 AM,46.0,19.9,35,29.97,10.0,WSW,19.6,27.6,N/A,,Clear,240,2013-01-24 16:53:00
10:53 AM,50.0,23.0,35,29.95,10.0,WSW,27.6,39.1,N/A,,Clear,250,2013-01-24 17:53:00
11:53 AM,50.0,24.1,36,29.94,10.0,WSW,24.2,35.7,N/A,,Clear,250,2013-01-24 18:53:00
12:53 PM,50.0,26.1,39,29.92,10.0,WSW,29.9,39.1,N/A,,Clear,250,2013-01-24 19:53:00
1:53 PM,50.0,26.1,39,29.93,10.0,WSW,29.9,38.0,N/A,,Clear,250,2013-01-24 20:53:00
2:53 PM,48.0,27.0,44,29.95,10.0,WSW,29.9,38.0,N/A,,Clear,250,2013-01-24 21:53:00
3:53 PM,48.0,27.0,44,29.97,10.0,WSW,25.3,31.1,N/A,,Clear,250,2013-01-24 22:53:00
4:53 PM,45.0,27.0,49,30.00,10.0,SW,15.0,-,N/A,,Scattered Clouds,230,2013-01-24 23:53:00
5:53 PM,44.1,28.0,53,30.04,10.0,SW,16.1,-,N/A,,Overcast,230,2013-01-25 00:53:00
6:53 PM,41.0,28.0,60,30.06,10.0,SW,17.3,-,N/A,,Clear,230,2013-01-25 01:53:00
7:53 PM,36.0,26.1,67,30.11,10.0,WSW,11.5,-,N/A,,Clear,240,2013-01-25 02:53:00
8:53 PM,32.0,25.0,75,30.12,10.0,Calm,Calm,-,N/A,,Clear,0,2013-01-25 03:53:00
9:53 PM,33.1,26.1,75,30.12,10.0,SW,10.4,-,N/A,,Clear,230,2013-01-25 04:53:00
10:53 PM,32.0,26.1,79,30.12,10.0,SW,10.4,-,N/A,,Clear,220,2013-01-25 05:53:00
11:53 PM,32.0,25.0,75,30.11,10.0,SW,10.4,-,N/A,,Clear,230,2013-01-25 06:53:00